Regional Weather Roundup
Issued by NWS Raleigh/Durham, NC

Home | Current Version | Previous Version | Text Only | Print | Product List | Glossary On
Versions: 1 2 3 4 5 6 7 8 9 10 11 12 13 14 15 16 17 18 19 20 21 22 23 24 25 26 27 28 29 30 31 32 33 34 35 36 37 38 39 40 41 42 43 44 45 46 47 48 49 50
936
ASUS42 KRAH 232210
RWRRAH
NORTH CAROLINA WEATHER ROUNDUP
NATIONAL WEATHER SERVICE RALEIGH NC
600 PM EDT TUE MAY 23 2017

NOTE: "FAIR" INDICATES FEW OR NO CLOUDS BELOW 12,000 FEET WITH NO
SIGNIFICANT WEATHER AND/OR OBSTRUCTIONS TO VISIBILITY.

NCZ001-053-055-056-065-067-232300-
WESTERN NORTH CAROLINA

CITY           SKY/WX    TMP DP  RH WIND       PRES   REMARKS
ASHEVILLE      LGT RAIN  67  61  81 VRB3      29.72F
JEFFERSON      RAIN      57  56  99 CALM      29.76F
HICKORY        LGT RAIN  66  65  96 CALM      29.70F
RUTHERFORDTON  CLOUDY    68  68 100 S6        29.71F
MOUNT AIRY     HVY RAIN  61  57  86 E7        29.76F
BOONE          RAIN      57  57 100 CALM      29.77F
$$

NCZ021-022-025-041-071-084-088-232300-
CENTRAL NORTH CAROLINA

CITY           SKY/WX    TMP DP  RH WIND       PRES   REMARKS
CHARLOTTE      LGT RAIN  69  65  86 SW7       29.72F
GREENSBORO     CLOUDY    62  62 100 NE9       29.73S
WINSTON-SALEM  LGT RAIN  61  58  90 NE7       29.75S
RALEIGH-DURHAM LGT RAIN  69  67  93 E6        29.72R
FORT BRAGG     NOT AVBL
FAYETTEVILLE   LGT RAIN  74  71  91 SW9       29.70S
BURLINGTON     LGT RAIN  64  62  93 NW3       29.73R
LAURINBURG     CLOUDY    73  71  93 SW8       29.72S
$$

NCZ011-015-027-028-043-044-047-080-103-232300-
NORTHEASTERN NORTH CAROLINA

CITY           SKY/WX    TMP DP  RH WIND       PRES   REMARKS
ROCKY MT-WILSO LGT RAIN  67  67 100 NE6       29.69F FOG
GREENVILLE     HVY RAIN  70  70 100 CALM      29.74S
WASHINGTON     RAIN      71  70  98 E5        29.70S
ELIZABETH CITY RAIN      67  67 100 E10       29.72F FOG
MANTEO         CLOUDY    68  68  99 E3        29.72F
CAPE HATTERAS  CLOUDY    76  70  82 SW17G29   29.73F
$$

NCZ078-087-090-091-093-098-101-232300-
SOUTHEASTERN NORTH CAROLINA

CITY           SKY/WX    TMP DP  RH WIND       PRES   REMARKS
LUMBERTON      LGT RAIN  73  71  93 SW10      29.72R
GOLDSBORO      NOT AVBL
KINSTON        RAIN      72  72 100 CALM      29.71S
KENANSVILLE    LGT RAIN  70  70 100 SW6       29.71F
NEW BERN       RAIN      73  72  96 S12       29.72S FOG
CHERRY POINT   TSTM      75  71  87 SW13G21   29.73R
BEAUFORT       LGT RAIN  76  74  93 SW14      29.73S
JACKSONVILLE   RAIN      70  70 100 S9        29.72S FOG
WILMINGTON     LGT RAIN  71  69  93 SW8       29.74F
$$





USA.gov is the U.S. government's official web portal to all federal, state and local government web resources and services.